Theta_e
322 321 322 322 323 324 324 325 325 325 325 325 327 327 327 328 329 329 329 330 331 331 336 341 346 346 346 348 350 352 353 353 352 351 349 346 344 344 342 341 340 339 337 336
324 322 322 322 323 324 325 324 324 324 325 325 325 326 326 327 328 329 329 331 331 331 335 343 346 349 347 347 348 350 353 354 355 352 350 346 344 343 342 341 339 338 337 334
326 325 323 321 323 323 324 324 324 324 325 325 325 325 326 327 328 329 331 335 334 333 338 349 351 352 352 350 350 349 351 353 355 350 349 347 346 345 343 341 339 336 333 330
325 325 323 322 322 323 324 324 324 323 323 324 326 326 329 329 329 330 332 336 335 338 339 350 351 351 352 352 351 351 352 352 353 350 348 347 346 345 343 341 339 334 331 331
323 323 323 324 324 323 322 324 324 324 325 327 326 328 329 330 330 328 331 336 338 338 340 342 349 349 350 350 351 351 352 351 350 350 347 347 346 344 343 341 336 334 331 328
322 323 323 324 324 323 323 324 325 325 326 326 326 327 326 329 329 330 332 336 340 341 342 344 346 348 349 349 349 350 350 350 349 348 347 347 345 345 341 337 336 331 328 323
323 322 323 323 325 325 324 325 328 328 328 327 326 327 327 329 329 329 329 329 334 340 342 345 349 349 347 347 349 349 349 347 346 346 346 346 345 342 340 336 332 328 323 321
325 326 324 323 323 325 327 327 328 330 329 328 328 328 328 328 328 329 329 330 331 334 338 342 349 346 346 347 348 348 348 344 344 344 343 342 341 339 335 331 325 324 321 320
327 325 323 322 322 323 323 327 326 328 328 328 329 330 329 329 329 328 328 332 333 335 340 343 347 346 346 347 347 346 346 344 342 341 340 339 335 331 327 325 324 321 320 318
326 328 324 323 323 322 322 324 327 327 330 330 328 329 328 329 329 329 329 330 331 339 343 344 346 346 346 347 346 345 344 342 340 338 336 332 328 326 325 323 322 321 319 317
325 327 328 324 324 324 325 322 325 328 329 332 333 330 331 331 330 330 329 329 329 337 344 345 347 345 345 345 343 343 341 340 337 334 331 328 326 325 323 323 322 321 319 317
327 330 330 328 326 325 324 325 327 328 329 330 328 328 328 328 329 329 328 329 329 336 344 346 347 345 346 344 342 341 339 336 333 330 327 326 325 323 323 323 321 320 318 317
330 329 331 330 328 328 327 326 326 327 330 331 331 330 328 328 327 328 328 328 328 335 343 345 347 345 346 343 341 340 337 333 330 327 326 326 324 323 324 323 321 319 318 317
325 330 332 331 330 330 331 329 328 329 330 330 331 330 328 329 329 330 330 329 328 332 341 345 346 345 345 343 340 337 334 331 328 326 326 325 324 325 324 322 320 319 318 316
324 329 329 328 327 326 327 327 327 329 329 332 331 331 331 331 331 331 331 331 330 330 339 346 346 347 345 342 339 336 333 330 327 326 325 326 326 325 323 321 319 318 318 316
324 328 324 325 325 325 326 325 325 325 325 326 326 327 327 328 328 330 330 331 331 330 335 342 348 346 344 342 339 335 332 329 327 325 326 326 325 324 322 321 319 318 316 315
324 325 325 324 322 323 325 324 324 324 325 325 326 326 326 327 328 329 333 337 334 332 332 341 345 347 345 342 338 334 331 328 327 326 326 325 324 322 320 319 318 316 316 315
321 323 323 323 323 325 323 323 323 324 323 325 326 325 325 326 328 330 338 340 341 343 336 338 343 347 344 340 336 332 330 328 327 327 326 324 322 320 319 317 316 316 316 315
319 321 322 322 322 321 321 322 322 323 324 326 329 329 330 332 331 334 335 335 339 341 341 341 342 345 344 339 334 331 329 327 327 327 326 323 321 319 318 315 316 316 316 315
318 318 321 321 321 322 322 322 324 324 324 329 330 330 331 332 332 332 334 334 337 339 339 341 343 344 342 336 333 330 329 328 328 327 324 321 319 317 314 316 316 315 314 313
322 320 320 320 320 319 319 321 323 325 334 330 329 331 332 333 333 332 331 333 334 337 338 340 342 343 338 333 332 331 329 329 328 325 321 319 317 314 316 316 315 313 312 312
322 324 325 322 321 320 318 319 322 333 328 325 324 327 326 324 324 325 328 331 334 337 338 338 341 338 334 332 332 331 329 328 324 321 319 316 316 315 313 314 312 312 312 313
318 318 322 322 322 322 325 328 326 323 323 321 323 324 323 321 321 322 324 329 333 335 337 337 336 333 333 332 332 330 327 324 321 319 316 316 314 313 312 312 313 312 312 311
318 318 319 322 321 323 323 323 322 320 318 319 320 320 319 319 320 321 322 325 331 333 335 335 333 332 332 330 330 327 324 320 318 317 316 315 314 312 312 312 312 311 310 310
315 316 317 318 317 318 318 318 317 316 315 316 316 317 317 318 320 321 322 323 329 333 333 332 331 330 330 327 324 320 319 317 317 316 315 314 313 313 313 312 311 310 309 308
313 313 314 315 314 314 314 314 314 314 314 314 314 315 318 319 320 321 322 323 327 333 332 330 329 328 325 322 319 317 315 315 315 315 314 312 311 311 311 311 310 309 307 305
Wind_Speed
13 11 14 17 15 16 10 10 12 8 7 3 14 17 18 19 17 20 14 18 18 16 18 24 22 22 22 21 22 22 21 20 20 19 17 16 15 13 11 10 8 8 8 7
7 14 16 12 9 7 10 12 13 11 10 10 15 17 18 19 18 21 15 13 16 15 14 15 21 19 18 20 20 19 19 19 20 17 16 14 14 13 11 10 8 8 8 7
13 7 3 4 11 11 14 13 12 11 11 10 14 18 20 18 21 9 13 12 15 12 15 13 15 18 19 20 20 19 19 18 18 16 14 11 10 10 11 10 9 9 8 7
12 15 6 10 12 13 14 11 9 10 13 12 15 13 15 14 12 13 12 7 9 7 10 17 15 18 18 18 16 15 15 16 16 17 16 15 16 14 12 12 10 8 7 6
14 10 12 13 13 12 16 7 7 14 13 14 17 9 13 6 7 12 10 5 1 6 9 12 14 16 15 14 13 14 15 16 15 17 15 16 14 12 11 10 8 8 7 5
16 11 10 12 11 14 13 10 12 14 14 14 17 15 16 11 13 8 4 6 2 4 6 5 9 9 11 12 13 14 15 15 15 16 15 16 12 12 12 11 10 9 7 5
16 17 13 12 11 7 13 11 10 12 11 13 16 16 13 9 9 6 4 9 7 8 6 9 11 9 14 17 16 15 16 14 14 14 14 11 12 11 11 12 9 7 6 5
8 12 19 14 14 15 15 13 11 14 11 11 10 5 5 11 10 4 7 10 9 9 8 10 12 11 14 16 16 16 16 14 13 13 12 13 13 12 11 8 6 5 3 3
5 9 5 3 9 15 16 14 10 14 17 14 16 8 10 12 11 12 13 4 6 7 6 7 11 13 15 17 17 16 16 16 15 14 13 13 12 11 9 8 6 3 2 3
11 13 7 9 7 13 14 13 9 9 14 16 13 13 10 9 7 5 5 7 5 6 5 6 9 13 15 16 15 15 16 15 15 15 14 13 13 11 10 8 5 4 3 3
13 10 14 7 10 13 8 13 11 12 11 11 10 9 11 9 4 7 10 12 11 4 3 7 10 14 16 16 16 16 16 17 17 16 15 15 13 12 10 7 5 5 4 5
3 5 12 17 15 14 14 15 11 10 11 11 13 14 18 13 8 12 15 15 11 3 2 8 12 16 18 18 18 18 18 18 18 18 17 15 13 11 9 7 6 5 6 6
5 7 10 16 16 16 12 15 13 14 13 16 13 12 11 8 9 10 14 17 20 3 5 8 12 14 18 19 19 20 19 20 19 17 15 14 12 11 8 7 6 6 6 7
4 9 12 13 16 9 11 12 16 11 11 14 15 18 15 11 10 12 16 17 18 13 4 9 10 13 19 20 21 20 19 18 17 16 15 14 11 10 8 7 6 6 6 8
4 14 16 19 22 19 18 17 17 16 14 15 16 20 18 16 16 17 18 17 17 12 6 11 12 14 19 20 19 19 18 18 16 14 12 12 10 8 7 7 6 5 6 8
6 10 14 21 20 20 25 24 22 22 21 23 21 21 18 18 18 19 16 19 16 13 9 10 14 14 16 19 19 20 20 18 17 16 14 12 11 9 8 7 6 6 7 8
11 10 12 20 20 22 27 21 25 24 23 23 21 21 20 19 17 10 14 20 17 14 14 11 14 15 19 20 21 21 19 19 18 16 14 12 10 9 7 6 5 5 7 9
13 12 11 15 16 24 15 17 19 21 20 16 17 16 15 14 14 7 14 16 18 22 12 5 10 16 19 21 22 20 20 19 18 15 13 11 9 7 5 4 4 6 8 10
17 14 11 13 15 20 21 17 13 13 13 8 11 9 12 18 15 5 17 15 16 17 14 13 8 16 19 21 22 22 20 19 17 15 12 10 8 5 4 4 5 7 9 11
17 16 13 14 17 18 14 11 12 17 18 6 8 7 9 12 9 5 22 19 16 17 15 9 4 13 18 22 21 20 19 19 15 13 10 8 5 4 2 3 6 8 10 12
11 12 16 13 14 13 10 13 11 10 4 7 9 9 11 10 11 16 18 19 17 16 12 8 5 14 22 25 22 19 18 15 13 11 10 7 5 3 1 3 6 8 10 12
11 10 12 13 17 22 11 10 10 7 5 8 11 8 10 13 16 16 18 18 16 12 12 3 13 18 22 24 21 18 16 13 11 10 9 6 4 1 1 4 7 8 10 13
17 17 12 13 10 3 1 7 1 5 10 14 10 11 13 16 16 17 18 18 15 10 9 5 19 19 18 20 18 18 16 13 10 9 7 5 2 0 3 5 7 9 10 13
20 12 14 15 15 19 17 13 12 11 12 15 14 15 16 18 18 17 15 17 15 11 4 3 19 18 15 16 16 19 18 17 11 8 5 3 0 2 3 7 8 10 13 15
13 14 14 18 16 18 21 20 20 13 12 17 19 20 19 20 19 18 16 16 15 9 5 15 16 15 16 16 18 15 13 13 11 6 3 0 3 2 6 8 9 11 11 9
13 19 15 17 19 19 20 19 23 21 20 19 21 23 20 18 19 21 17 18 16 2 8 13 14 15 18 17 18 16 13 11 11 5 1 2 6 6 7 9 11 9 6 9
Wind_Direction
201 224 227 240 227 277 332 302 301 310 288 254 277 279 275 269 263 271 230 249 239 252 192 191 196 200 198 201 196 204 202 199 205 205 207 212 211 213 209 207 179 196 207 221
194 237 258 239 268 266 257 262 264 267 267 294 277 264 263 262 260 250 266 282 277 250 186 172 181 191 203 201 204 206 208 203 200 206 210 215 212 207 206 194 191 201 201 208
246 307 339 248 246 243 246 262 277 293 306 264 269 268 260 254 250 267 267 263 266 218 174 154 172 193 203 207 204 204 204 200 198 203 196 191 188 182 186 184 194 197 198 209
243 260 203 249 243 243 250 239 259 275 265 267 246 260 268 206 209 231 235 208 217 202 192 174 190 200 203 203 203 202 198 193 195 192 187 192 186 191 203 192 187 180 202 204
241 225 252 236 249 241 259 295 294 260 264 275 268 243 280 213 213 238 224 138 192 190 199 196 178 193 196 201 186 186 183 181 181 183 185 185 201 184 174 171 164 187 178 193
266 284 255 252 255 242 260 271 250 256 253 251 248 256 267 245 219 181 65 151 153 226 175 188 181 163 181 190 184 176 172 170 170 175 179 190 186 161 175 178 178 187 191 202
229 242 228 240 248 206 240 231 250 232 225 246 243 233 237 313 340 315 319 305 194 187 228 182 168 182 191 187 173 169 166 162 165 168 169 163 163 173 175 174 191 181 199 223
264 224 206 212 229 258 196 242 261 291 285 299 179 234 262 241 287 322 287 276 275 271 228 191 164 197 192 177 175 170 161 150 156 154 155 161 161 166 168 180 171 192 207 223
298 241 94 264 272 231 250 255 257 286 280 278 284 249 185 200 226 263 254 206 267 269 263 204 163 193 195 175 173 171 169 164 165 164 160 159 157 161 155 155 163 169 195 226
274 275 228 174 231 240 251 261 233 230 263 274 273 249 261 150 198 276 305 292 329 149 251 200 179 190 194 174 166 177 171 168 168 165 163 158 156 158 156 158 168 179 205 241
264 256 279 202 220 256 182 235 243 287 301 300 288 259 45 29 348 311 311 303 319 55 201 197 177 183 192 171 179 175 173 169 169 169 167 162 163 163 163 163 176 200 219 235
64 288 256 263 253 237 252 280 235 233 244 238 260 278 315 326 285 282 299 286 308 42 199 188 178 183 189 179 178 179 178 175 175 174 170 165 166 170 167 176 195 213 234 250
12 230 258 250 249 235 239 256 251 259 273 267 279 284 303 311 292 268 285 308 299 148 174 198 179 178 194 184 185 184 184 182 179 173 170 169 171 173 175 188 203 220 246 271
307 262 261 275 311 332 302 235 261 255 256 261 256 265 265 288 313 314 305 299 297 333 171 208 187 194 194 189 191 189 187 183 174 175 171 173 176 182 183 194 205 228 258 281
265 262 256 261 273 281 278 273 277 269 263 261 281 295 306 311 308 300 294 287 284 272 239 199 206 200 193 193 187 187 184 176 174 176 172 178 181 186 192 203 221 246 267 284
250 271 269 268 270 273 272 270 268 269 270 273 274 273 276 276 276 277 305 312 293 269 228 217 201 201 197 192 189 185 181 174 172 178 181 182 179 186 199 214 235 257 276 286
279 273 265 259 261 267 262 257 260 264 269 269 267 272 278 278 284 303 345 333 311 286 289 192 205 198 199 187 189 183 176 171 177 176 181 182 184 195 200 222 245 275 287 296
252 257 262 268 274 255 272 266 267 270 280 269 281 286 285 264 272 341 35 360 349 340 318 260 200 190 194 183 184 177 174 172 176 180 179 184 187 195 207 232 270 282 289 294
230 243 263 258 250 258 267 290 287 280 278 334 333 319 337 346 340 33 23 1 357 342 339 318 198 187 184 169 171 172 174 176 174 178 179 185 187 191 215 262 291 296 297 298
225 223 246 254 263 265 280 272 15 323 233 44 355 348 339 342 286 295 353 346 358 345 339 329 190 176 159 149 163 170 178 177 180 172 171 175 175 193 236 301 299 301 299 293
216 222 228 236 251 272 285 331 341 270 65 8 349 349 358 351 339 321 333 336 349 341 343 329 210 145 138 146 157 179 178 176 170 164 165 158 167 190 248 292 295 299 300 307
227 212 232 233 253 260 269 267 273 36 332 326 319 345 337 326 319 324 330 332 338 350 336 292 103 115 133 150 163 177 170 153 158 166 152 151 173 249 359 301 300 306 302 294
249 262 264 261 240 194 63 322 283 338 313 312 325 319 317 318 320 321 322 325 341 345 336 296 122 119 139 160 170 166 138 148 165 157 145 159 151 331 305 294 300 301 297 304
270 249 258 274 268 277 286 272 282 301 325 319 313 310 309 308 311 311 314 316 325 335 314 147 131 134 159 161 165 140 153 152 154 139 151 147 195 325 303 311 310 327 326 332
288 305 291 280 278 285 279 279 283 296 317 310 309 308 311 308 304 310 310 308 311 328 87 129 148 148 150 134 131 138 143 142 124 127 125 254 229 254 298 283 321 317 319 322
262 268 267 269 284 289 293 309 311 312 303 299 297 299 301 299 307 307 300 295 292 148 154 145 149 154 141 146 138 138 140 127 115 121 169 7 323 323 325 329 335 334 295 295